Regional Weather Roundup
Issued by NWS

Home | Current Version | Previous Version | Graphics & Text | Print | Product List | Glossary On
Versions: 1 2 3 4 5 6 7 8 9 10 11 12 13 14 15 16 17 18 19 20 21 22 23 24 25 26 27 28 29 30 31 32 33 34 35 36 37 38 39 40 41 42 43 44 45 46 47 48 49 50
000
ASUS43 KLSX 201407
RWRMO

WEATHER SUMMARY FOR MISSOURI
NATIONAL WEATHER SERVICE SPRINGFIELD MO
800 AM CST MON NOV 20 2017

NOTE: "FAIR" INDICATES FEW OR NO CLOUDS BELOW 12,000 FEET WITH NO
       SIGNIFICANT WEATHER AND/OR OBSTRUCTIONS TO VISIBILITY.
       CURRENT SKY AND/OR WEATHER CONDITIONS ARE NOT AVAILABLE FOR
       CHILLICOTHE AND FARMINGTON.

MOZ001>031-035>038-043-044-053-054-201500-
...NORTHERN AND WESTERN MISSOURI...

CITY           SKY/WX    TMP DP  RH WIND       PRES   REMARKS
KANSAS CTY INT MOCLDY    44  28  53 SW20G26   29.92F
KANSAS C DTWN  CLEAR     47  28  47 SW15      29.95F
LEE`S SUMMIT   CLEAR     44  29  55 SW18G25   29.97F
ST JOSEPH      CLEAR     45  27  49 S15       29.89F
CHILLICOTHE      N/A     41  30  65 S12       29.94S
KIRKSVILLE     CLEAR     43  30  60 SW14      29.94F

$$
MOZ066>068-077>081-088>096-101>105-201500-
...SOUTHWEST MISSOURI...

CITY           SKY/WX    TMP DP  RH WIND       PRES   REMARKS
SPRINGFIELD    CLEAR     37  28  70 S15       30.10S WCI  28
JOPLIN         CLEAR     46  28  49 S20G28    30.09F
BRANSON        MOSUNNY   41  27  56 SE6       30.15R

$$
MOZ032>034-039>042-045>050-055>058-069>072-201500-
...CENTRAL MISSOURI...

CITY           SKY/WX    TMP DP  RH WIND       PRES   REMARKS
COLUMBIA       CLOUDY    38  28  67 S12       30.04F
JEFFERSON CITY CLOUDY    40  27  59 SE6       30.08S
ROLLA          CLOUDY    41  25  53 S14       30.10S
SEDALIA        CLEAR     43  30  60 S14       30.04S
WHITEMAN AFB   CLEAR     40  29  64 SW15      29.97F
WARRENSBURG    CLEAR     37  30  75 S9        30.01F
OSAGE BEACH    CLOUDY    37  27  67 S7        30.10R

$$
MOZ051-052-059>065-201500-
...EAST CENTRAL MISSOURI...

CITY           SKY/WX    TMP DP  RH WIND       PRES   REMARKS
ST LOUIS INTL  CLOUDY    39  23  52 S12       30.09F
SPIRIT OF STL  CLOUDY    41  23  48 SW10      30.10S
ST CHARLES     CLOUDY    33  26  75 SW3       30.09F

$$
MOZ072>076-082>087-097>100-106>115-201500-
...SOUTH CENTRAL AND SOUTHEAST MISSOURI...

CITY           SKY/WX    TMP DP  RH WIND       PRES   REMARKS
CAPE GIRARDEAU CLOUDY    31  27  85 SE5       30.23R WCI  26
FARMINGTON     CLOUDY    34  22  61 SE6       30.17S WCI  29
POPLAR BLUFF   CLOUDY    30  27  88 CALM      30.24R
WEST PLAINS    CLOUDY    38  22  52 S7        30.17S

$$


USA.gov is the U.S. government's official web portal to all federal, state and local government web resources and services.